Skip Page Navigation
NASA JPL Caltech
NASA Logo - Jet Propulsion Laboratory + View the NASA Portal
+ Center for Near-Earth Object Studies
JPL Home Earth Solar System Stars & Galaxies Technology
JPL Solar System Dynamics
BODIES ORBITS EPHEMERIDES TOOLS PHYSICAL DATA DISCOVERY FAQ SITE MAP
JPL Small-Body Database Browser
Search: [ help ]  
452567 (2005 AX72)
Classification: Main-belt Asteroid          SPK-ID: 2452567
Ephemeris | Orbit Diagram | Orbital Elements | Mission Design | Physical Parameters | Discovery Circumstances | Close-Approach Data ]

[ show orbit diagram ]
Orbital Elements at Epoch 2459000.5 (2020-May-31.0) TDB
Reference: JPL 9 (heliocentric ecliptic J2000)
 Element Value Uncertainty (1-sigma)   Units 
e .02648267129375434 1.2539e-07  
a 3.135528530759834 9.1403e-08 au
q 3.052491359347533 4.2265e-07 au
i 10.21373762283901 1.4968e-05 deg
node 118.8369947339979 4.4144e-05 deg
peri 340.3787262991074 0.00020012 deg
M 301.5172054147145 0.00018674 deg
tp 2459329.950505673259
(2021-Apr-25.45050567)
0.0010481 TDB
period 2027.98417694311
5.55
8.8676e-05
2.428e-07
d
yr
n .177516177933226 7.7621e-09 deg/d
Q 3.218565702172135 9.3823e-08 au
  Orbit Determination Parameters
   # obs. used (total)      67  
   data-arc span      4065 days (11.13 yr)  
   first obs. used      2004-12-19  
   last obs. used      2016-02-05  
   planetary ephem.      DE431  
   SB-pert. ephem.      SB431-N16  
   condition code      0  
   norm. resid. RMS      .42641  
   source      ORB  
   producer      Otto Matic  
   solution date      2017-Apr-09 10:48:41  

Additional Information
 Earth MOID = 2.07098 au 
 Jupiter MOID = 1.85383 au 
 T_jup = 3.187 
[ show covariance matrix ]

Ephemeris | Orbit Diagram | Orbital Elements | Mission Design | Physical Parameters | Discovery Circumstances | Close-Approach Data ]

Physical Parameter Table
Parameter Symbol Value Units Sigma Reference Notes
absolute magnitude H 16.4   n/a MPO495256  

452567 (2005 AX72)          Discovered 2004-Dec-19 by Mt. Lemmon Survey at Mount Lemmon
Reference: Last Updated: 2016-01-04

[ hide close-approach data ]
Close-Approach Data   ...sorted by Date/Time (TDB)
Date/Time (TDB) Time Uncertainty
(days_HH:MM)
Body Nominal Distance (au) Minimum Distance (au) Maximum Distance (au) V-relative (km/s) V-infinity (km/s) JD (TDB) Time Uncertainty (minutes) Semi-major axis (km) Semi-minor axis (km) range-LOV angle (deg) N-sigma BP Orbit Ref. Reference Modified
1902-Mar-26 06:14 01:47 Jupiter 1.93784973614776 1.9378466449308 1.93785283045597 4.07236408008393 3.9635793390287 2415834.760050226 106.826704908903 4286.99173806653 56.3039231153799 -88.0417020323251 1164943.76450328 T 9 CATAB v2.0e-lin.ifort 2017-Nov-27 03:24:30 2018-Dec-18 03:25
1975-Jun-25 09:10 00:50 Jupiter 1.95694449265471 1.95694320402267 1.95694578128664 3.54965218555605 3.42554702876618 2442588.881771436 50.4379951520168 144.347428713819 57.4744940392115 88.643880855066 1620778.46747499 T 9 CATAB v2.0e-lin.ifort 2017-Nov-27 03:24:30 2018-Dec-18 03:25
1985-Nov-11 22:02 00:28 Jupiter 1.9072545392486 1.90725327987519 1.90725579863415 3.97557146049961 3.86224767960961 2446381.417905512 28.1788531605546 929.75497333529 52.8746148621499 -88.7314712358164 1172076.37997391 T 9 CATAB v2.0e-lin.ifort 2017-Nov-27 03:24:30 2018-Dec-18 03:25
2059-Mar-01 03:11 00:59 Jupiter 1.99924377131423 1.99924236419646 1.99924517852893 3.57548561829902 3.45496085337404 2473153.632482520 58.5610249333712 1279.24757860065 55.5831956704324 -87.72999442242 2072127.27653981 T 9 CATAB v2.0e-lin.ifort 2017-Nov-27 03:24:30 2018-Dec-18 03:25
2069-Jul-07 04:10 01:02 Jupiter 1.90341838910286 1.90341707685642 1.90341970142969 3.73972566752753 3.61877695749341 2476934.673909356 62.1912551053224 1252.88561505686 47.0069581503558 89.5051950635584 1268592.09258548 T 9 CATAB v2.0e-lin.ifort 2017-Nov-27 03:24:30 2018-Dec-18 03:25
2079-Dec-13 04:19 01:03 Jupiter 1.96567025579805 1.96566804348711 1.96567246909214 4.1112829864156 4.00510078853165 2480745.680114624 63.4772923490456 2683.17061257071 55.672907424976 -87.9057119772918 1198208.97771832 T 9 CATAB v2.0e-lin.ifort 2017-Nov-27 03:24:30 2018-Dec-18 03:25
2153-Mar-10 15:15 02:59 Jupiter 1.93812525917466 1.93812255452958 1.93812796383274 3.50704697187262 3.38013530988331 2507496.135346749 179.300731548432 309.490458804487 37.6539928864609 72.8137363436927 1077797.68021155 T 9 CATAB v2.0e-lin.ifort 2017-Nov-27 03:24:30 2018-Dec-18 03:25
2163-Aug-01 09:19 02:28 Jupiter 1.92063933562696 1.92063710303874 1.92064157207039 4.00974282837952 3.89820678402805 2511291.888361570 147.893082825865 5246.77061287106 54.8666092320553 -88.6144549642961 1163955.16118183 T 9 CATAB v2.0e-lin.ifort 2017-Nov-27 03:24:30 2018-Dec-18 03:25
Ephemeris | Orbit Diagram | Orbital Elements | Mission Design | Physical Parameters | Discovery Circumstances | Close-Approach Data ]
ABOUT SSD CREDITS/AWARDS PRIVACY/COPYRIGHT GLOSSARY LINKS
FirstGov 2020-Aug-08 19:26 UT
(server date/time)  
NASA Home Page
Site Manager:   Ryan S. Park
Webmaster  Alan B. Chamberlin